Change the Weather History Date:

Wednesday, January 1, 2014

  Actual Average Record
Temperature  
Mean Temperature 54 °F 51 °F  
Max Temperature 62 °F 60 °F 80 °F (1975)
Min Temperature 45 °F 42 °F 23 °F (1928)
Degree Days  
Heating Degree Days 11 14  
Month to date heating degree days 11 14  
Since 1 July heating degree days 506 596  
Cooling Degree Days 0 0  
Month to date cooling degree days 0 0  
Year to date cooling degree days 0 0  
Growing Degree Days 3 (Base 50)    
Moisture  
Dew Point 48 °F    
Average Humidity 85    
Maximum Humidity 93    
Minimum Humidity 76    
Precipitation  
Precipitation 0.14 in 0.14 in 4.84 in (1936)
Month to date precipitation 0.14 0.14  
Year to date precipitation 0.14 0.14  
Snow  
Snow 0.00 in 0.00 in T in (2002)
Month to date snowfall 0.0  
Since 1 July snowfall 0.0 0.0  
Snow Depth 0.00 in    
Sea Level Pressure  
Sea Level Pressure 30.21 in    
Wind  
Wind Speed 4 mph (ENE)    
Max Wind Speed 12 mph    
Max Gust Speed 16 mph    
Visibility 9 miles    
Events Rain    
T = Trace of Precipitation, MM = Missing Value Source: NWS Daily Summary

Daily Weather History Graph

Daily Weather History Graph

Search for Another Location

Airport or City:

Trip Planner

Search our weather history database for the weather conditions in past years. The results will help you decide how hot, cold, wet, or windy it might be!

Date:

Astronomy

Jan. 01, 2014 Rise Set
Actual Time 6:45 AM CST 4:59 PM CST
Civil Twilight 6:19 AM CST 5:25 PM CST
Nautical Twilight 5:49 AM CST 5:55 PM CST
Astronomical Twilight 5:20 AM CST 6:24 PM CST
Moon 6:40 AM CST (1/1) 5:38 PM CST (1/1)
Length of Visible Light 11h 06m
Length of Day
10h 13m
New Moon, 0% of the Moon is Illuminated
Jan 1
New Moon
Jan 7
First Quarter
Jan 15
Full
Jan 23
Last Quarter
Jan 30
New

Hourly Weather History & Observations

Time (CST) Temp. Windchill Dew Point Humidity Pressure Visibility Wind Dir Wind Speed Gust Speed Precip Events Conditions
12:53 AM 46.0 °F - 41.0 °F 83% 30.33 in 10.0 mi Calm Calm - 0.00 in   Overcast
1:53 AM 46.0 °F - 41.0 °F 83% 30.33 in 10.0 mi Calm Calm - N/A   Overcast
2:53 AM 45.0 °F - 42.1 °F 90% 30.32 in 9.0 mi Calm Calm - 0.03 in Rain Light Rain
3:53 AM 45.0 °F 43.5 °F 42.1 °F 90% 30.30 in 9.0 mi ENE 3.5 mph - 0.02 in Rain Light Rain
4:53 AM 46.0 °F 43.9 °F 42.1 °F 86% 30.29 in 10.0 mi East 4.6 mph - 0.01 in Rain Light Rain
5:53 AM 46.0 °F 43.9 °F 43.0 °F 89% 30.28 in 10.0 mi East 4.6 mph - 0.01 in   Mostly Cloudy
6:53 AM 46.0 °F 44.8 °F 43.0 °F 89% 30.29 in 9.0 mi NNE 3.5 mph - N/A   Mostly Cloudy
7:53 AM 46.9 °F - 44.1 °F 90% 30.30 in 8.0 mi NNE 4.6 mph - N/A   Clear
8:53 AM 48.9 °F - 45.0 °F 86% 30.29 in 8.0 mi ENE 4.6 mph - N/A   Clear
9:53 AM 51.1 °F - 48.0 °F 89% 30.30 in 9.0 mi ENE 4.6 mph - N/A   Overcast
10:53 AM 53.1 °F - 48.9 °F 86% 30.28 in 9.0 mi NE 4.6 mph - N/A   Overcast
11:53 AM 55.0 °F - 50.0 °F 83% 30.24 in 10.0 mi ENE 5.8 mph - N/A   Clear
12:53 PM 57.9 °F - 52.0 °F 81% 30.19 in 10.0 mi NE 6.9 mph - 0.00 in   Partly Cloudy
1:53 PM 61.0 °F - 53.1 °F 75% 30.17 in 10.0 mi ENE 4.6 mph - N/A   Overcast
2:53 PM 60.1 °F - 54.0 °F 80% 30.15 in 10.0 mi East 4.6 mph - N/A   Overcast
3:53 PM 60.1 °F - 54.0 °F 80% 30.14 in 10.0 mi East 5.8 mph - N/A   Overcast
4:53 PM 57.9 °F - 52.0 °F 81% 30.12 in 10.0 mi Variable 6.9 mph - N/A   Clear
5:53 PM 55.9 °F - 52.0 °F 87% 30.12 in 10.0 mi East 4.6 mph - N/A   Clear
6:53 PM 55.0 °F - 52.0 °F 89% 30.15 in 10.0 mi Calm Calm - N/A   Clear
7:53 PM 55.0 °F - 52.0 °F 89% 30.14 in 8.0 mi North 3.5 mph - 0.00 in Rain Light Rain
8:53 PM 55.0 °F - 51.1 °F 86% 30.15 in 10.0 mi East 3.5 mph - 0.00 in Rain Light Rain
9:53 PM 54.0 °F - 51.1 °F 90% 30.14 in 9.0 mi ENE 3.5 mph - 0.02 in Rain Light Rain
10:53 PM 53.1 °F - 51.1 °F 93% 30.09 in 7.0 mi ENE 5.8 mph - 0.01 in Rain Light Rain
11:53 PM 54.0 °F - 51.1 °F 90% 30.04 in 5.0 mi East 9.2 mph - 0.03 in Rain Rain